Location: St. Louis
(38.6270°N, 90.1994°W)
Time: 19:30:50
(UTC-06:00)

Vanguard 1 - Pass Details

Date: 09 December 2021
Orbit: 652 x 3830 km, 34.2° (Epoch: 21 January)

Event Time Altitude Azimuth Distance (km) Brightness Sun altitude
Rises 20:07:33 0° 207° (SSW) 5,578 14.2 -39.8°
Reaches altitude 10° 20:11:06 10° 199° (SSW) 4,966 13.8 -40.5°
Enters shadow 20:20:52 35° 160° (SSE) 4,168 12.9 -42.4°
